Year,Month,Day,Hour,Minute,Value (Times are PST for temperature in C)
2017,06,26,00,00,15.30
2017,06,26,00,01,15.30
2017,06,26,00,02,15.30
2017,06,26,00,03,15.20
2017,06,26,00,04,15.20
2017,06,26,00,05,15.20
2017,06,26,00,06,15.20
2017,06,26,00,07,15.20
2017,06,26,00,08,15.30
2017,06,26,00,09,15.30
2017,06,26,00,10,15.30
2017,06,26,00,11,15.30
2017,06,26,00,12,15.40
2017,06,26,00,13,15.40
2017,06,26,00,14,15.50
2017,06,26,00,15,15.50
2017,06,26,00,16,15.50
2017,06,26,00,17,15.60
2017,06,26,00,18,15.60
2017,06,26,00,19,15.60
2017,06,26,00,20,15.60
2017,06,26,00,21,15.70
2017,06,26,00,22,15.70
2017,06,26,00,23,15.80
2017,06,26,00,24,15.80
2017,06,26,00,25,15.80
2017,06,26,00,26,15.80
2017,06,26,00,27,15.80
2017,06,26,00,28,15.80
2017,06,26,00,29,15.80
2017,06,26,00,30,15.90
2017,06,26,00,31,15.90
2017,06,26,00,32,15.90
2017,06,26,00,33,15.90
2017,06,26,00,34,15.90
2017,06,26,00,35,15.90
2017,06,26,00,36,15.90
2017,06,26,00,37,15.80
2017,06,26,00,38,15.80
2017,06,26,00,39,15.80
2017,06,26,00,40,15.80
2017,06,26,00,41,15.80
2017,06,26,00,42,15.80
2017,06,26,00,43,15.80
2017,06,26,00,44,15.80
2017,06,26,00,45,15.80
2017,06,26,00,46,15.80
2017,06,26,00,47,15.80
2017,06,26,00,48,15.80
2017,06,26,00,49,15.80
2017,06,26,00,50,15.80
2017,06,26,00,51,15.80
2017,06,26,00,52,15.80
2017,06,26,00,53,15.80
2017,06,26,00,54,15.80
2017,06,26,00,55,15.80
2017,06,26,00,56,15.80
2017,06,26,00,57,15.80
2017,06,26,00,58,15.90
2017,06,26,00,59,15.90
2017,06,26,01,00,15.90
2017,06,26,01,01,16.00
2017,06,26,01,02,16.10
2017,06,26,01,03,16.10
2017,06,26,01,04,16.10
2017,06,26,01,05,16.10
2017,06,26,01,06,16.10
2017,06,26,01,07,16.10
2017,06,26,01,08,16.10
2017,06,26,01,09,16.20
2017,06,26,01,10,16.20
2017,06,26,01,11,16.20
2017,06,26,01,12,16.20
2017,06,26,01,13,16.20
2017,06,26,01,14,16.30
2017,06,26,01,15,16.30
2017,06,26,01,16,16.30
2017,06,26,01,17,16.40
2017,06,26,01,18,16.40
2017,06,26,01,19,16.40
2017,06,26,01,20,16.40
2017,06,26,01,21,16.40
2017,06,26,01,22,16.40
2017,06,26,01,23,16.40
2017,06,26,01,24,16.40
2017,06,26,01,25,16.40
2017,06,26,01,26,16.40
2017,06,26,01,27,16.40
2017,06,26,01,28,16.40
2017,06,26,01,29,16.40
2017,06,26,01,30,16.40
2017,06,26,01,31,16.40
2017,06,26,01,32,16.40
2017,06,26,01,33,16.40
2017,06,26,01,34,16.40
2017,06,26,01,35,16.40
2017,06,26,01,36,16.40
2017,06,26,01,37,16.40
2017,06,26,01,38,16.40
2017,06,26,01,39,16.40
2017,06,26,01,40,16.60
2017,06,26,01,41,16.60
2017,06,26,01,42,16.60
2017,06,26,01,43,16.60
2017,06,26,01,44,16.60
2017,06,26,01,45,16.60
2017,06,26,01,46,16.60
2017,06,26,01,47,16.50
2017,06,26,01,48,16.40
2017,06,26,01,49,16.40
2017,06,26,01,50,16.40
2017,06,26,01,51,16.40
2017,06,26,01,52,16.40
2017,06,26,01,53,16.40
2017,06,26,01,54,16.40
2017,06,26,01,55,16.40
2017,06,26,01,56,16.40
2017,06,26,01,57,16.40
2017,06,26,01,58,16.40
2017,06,26,01,59,16.40
2017,06,26,02,00,16.30
2017,06,26,02,01,16.30
2017,06,26,02,02,16.30
2017,06,26,02,03,16.30
2017,06,26,02,04,16.20
2017,06,26,02,05,16.20
2017,06,26,02,06,16.20
2017,06,26,02,07,16.20
2017,06,26,02,08,16.20
2017,06,26,02,09,16.10
2017,06,26,02,10,16.10
2017,06,26,02,11,16.10
2017,06,26,02,12,16.10
2017,06,26,02,13,16.10
2017,06,26,02,14,16.10
2017,06,26,02,15,16.10
2017,06,26,02,16,16.10
2017,06,26,02,17,16.10
2017,06,26,02,18,16.00
2017,06,26,02,19,15.90
2017,06,26,02,20,15.90
2017,06,26,02,21,15.80
2017,06,26,02,22,15.80
2017,06,26,02,23,15.80
2017,06,26,02,24,15.80
2017,06,26,02,25,15.70
2017,06,26,02,26,15.70
2017,06,26,02,27,15.70
2017,06,26,02,28,15.60
2017,06,26,02,29,15.60
2017,06,26,02,30,15.60
2017,06,26,02,31,15.60
2017,06,26,02,32,15.60
2017,06,26,02,33,15.60
2017,06,26,02,34,15.60
2017,06,26,02,35,15.60
2017,06,26,02,36,15.60
2017,06,26,02,37,15.50
2017,06,26,02,38,15.50
2017,06,26,02,39,15.50
2017,06,26,02,40,15.50
2017,06,26,02,41,15.50
2017,06,26,02,42,15.50
2017,06,26,02,43,15.50
2017,06,26,02,44,15.50
2017,06,26,02,45,15.50
2017,06,26,02,46,15.40
2017,06,26,02,47,15.40
2017,06,26,02,48,15.40
2017,06,26,02,49,15.40
2017,06,26,02,50,15.40
2017,06,26,02,51,15.40
2017,06,26,02,52,15.40
2017,06,26,02,53,15.40
2017,06,26,02,54,15.40
2017,06,26,02,55,15.40
2017,06,26,02,56,15.40
2017,06,26,02,57,15.40
2017,06,26,02,58,15.40
2017,06,26,02,59,15.40
2017,06,26,03,00,15.40
2017,06,26,03,01,15.40
2017,06,26,03,02,15.40
2017,06,26,03,03,15.30
2017,06,26,03,04,15.30
2017,06,26,03,05,15.30
2017,06,26,03,06,15.30
2017,06,26,03,07,15.30
2017,06,26,03,08,15.30
2017,06,26,03,09,15.30
2017,06,26,03,10,15.30
2017,06,26,03,11,15.30
2017,06,26,03,12,15.30
2017,06,26,03,13,15.30
2017,06,26,03,14,15.30
2017,06,26,03,15,15.20
2017,06,26,03,16,15.20
2017,06,26,03,17,15.20
2017,06,26,03,18,15.20
2017,06,26,03,19,15.20
2017,06,26,03,20,15.20
2017,06,26,03,21,15.20
2017,06,26,03,22,15.10
2017,06,26,03,23,15.10
2017,06,26,03,24,15.10
2017,06,26,03,25,15.10
2017,06,26,03,26,15.10
2017,06,26,03,27,15.10
2017,06,26,03,28,15.10
2017,06,26,03,29,15.10
2017,06,26,03,30,15.00
2017,06,26,03,31,15.00
2017,06,26,03,32,15.00
2017,06,26,03,33,15.00
2017,06,26,03,34,15.00
2017,06,26,03,35,15.00
2017,06,26,03,36,15.00
2017,06,26,03,37,15.00
2017,06,26,03,38,15.00
2017,06,26,03,39,15.00
2017,06,26,03,40,15.00
2017,06,26,03,41,14.90
2017,06,26,03,42,14.90
2017,06,26,03,43,14.90
2017,06,26,03,44,14.90
2017,06,26,03,45,14.90
2017,06,26,03,46,14.90
2017,06,26,03,47,14.90
2017,06,26,03,48,14.90
2017,06,26,03,49,14.90
2017,06,26,03,50,14.90
2017,06,26,03,51,14.90
2017,06,26,03,52,14.90
2017,06,26,03,53,14.90
2017,06,26,03,54,14.90
2017,06,26,03,55,14.90
2017,06,26,03,56,14.90
2017,06,26,03,57,14.90
2017,06,26,03,58,14.90
2017,06,26,03,59,14.90
2017,06,26,04,00,14.90
2017,06,26,04,01,14.90
2017,06,26,04,02,14.90
2017,06,26,04,03,14.90
2017,06,26,04,04,14.90
2017,06,26,04,05,14.90
2017,06,26,04,06,14.90
2017,06,26,04,07,14.90
2017,06,26,04,08,14.90
2017,06,26,04,09,14.90
2017,06,26,04,10,14.90
2017,06,26,04,11,14.90
2017,06,26,04,12,14.90
2017,06,26,04,13,14.90
2017,06,26,04,14,14.90
2017,06,26,04,15,14.90
2017,06,26,04,16,14.90
2017,06,26,04,17,14.90
2017,06,26,04,18,14.90
2017,06,26,04,19,14.90
2017,06,26,04,20,14.90
2017,06,26,04,21,14.90
2017,06,26,04,22,14.90
2017,06,26,04,23,14.90
2017,06,26,04,24,14.90
2017,06,26,04,25,14.90
2017,06,26,04,26,14.90
2017,06,26,04,27,14.90
2017,06,26,04,28,14.90
2017,06,26,04,29,14.90
2017,06,26,04,30,14.90
2017,06,26,04,31,14.90
2017,06,26,04,32,14.90
2017,06,26,04,33,14.90
2017,06,26,04,34,14.80
2017,06,26,04,35,14.80
2017,06,26,04,36,14.80
2017,06,26,04,37,14.80
2017,06,26,04,38,14.80
2017,06,26,04,39,14.70
2017,06,26,04,40,14.70
2017,06,26,04,41,14.70
2017,06,26,04,42,14.60
2017,06,26,04,43,14.60
2017,06,26,04,44,14.60
2017,06,26,04,45,14.50
2017,06,26,04,46,14.50
2017,06,26,04,47,14.40
2017,06,26,04,48,14.40
2017,06,26,04,49,14.40
2017,06,26,04,50,14.40
2017,06,26,04,51,14.30
2017,06,26,04,52,14.30
2017,06,26,04,53,14.30
2017,06,26,04,54,14.30
2017,06,26,04,55,14.30
2017,06,26,04,56,14.20
2017,06,26,04,57,14.20
2017,06,26,04,58,14.20
2017,06,26,04,59,14.20
2017,06,26,05,00,14.20
2017,06,26,05,01,14.20
2017,06,26,05,02,14.20
2017,06,26,05,03,14.20
2017,06,26,05,04,14.20
2017,06,26,05,05,14.20
2017,06,26,05,06,14.20
2017,06,26,05,07,14.10
2017,06,26,05,08,14.10
2017,06,26,05,09,14.10
2017,06,26,05,10,14.10
2017,06,26,05,11,14.00
2017,06,26,05,12,14.00
2017,06,26,05,13,14.00
2017,06,26,05,14,14.00
2017,06,26,05,15,13.90
2017,06,26,05,16,13.90
2017,06,26,05,17,13.90
2017,06,26,05,18,13.90
2017,06,26,05,19,13.80
2017,06,26,05,20,13.80
2017,06,26,05,21,13.80
2017,06,26,05,22,13.80
2017,06,26,05,23,13.80
2017,06,26,05,24,13.80
2017,06,26,05,25,13.80
2017,06,26,05,26,13.70
2017,06,26,05,27,13.70
2017,06,26,05,28,13.70
2017,06,26,05,29,13.70
2017,06,26,05,30,13.70
2017,06,26,05,31,13.70
2017,06,26,05,32,13.70
2017,06,26,05,33,13.70
2017,06,26,05,34,13.70
2017,06,26,05,35,13.70
2017,06,26,05,36,13.70
2017,06,26,05,37,13.70
2017,06,26,05,38,13.70
2017,06,26,05,39,13.80
2017,06,26,05,40,13.80
2017,06,26,05,41,13.80
2017,06,26,05,42,13.90
2017,06,26,05,43,13.90
2017,06,26,05,44,13.90
2017,06,26,05,45,14.00
2017,06,26,05,46,14.00
2017,06,26,05,47,14.00
2017,06,26,05,48,14.00
2017,06,26,05,49,14.00
2017,06,26,05,50,14.00
2017,06,26,05,51,14.00
2017,06,26,05,52,13.90
2017,06,26,05,53,13.90
2017,06,26,05,54,13.90
2017,06,26,05,55,13.90
2017,06,26,05,56,13.90
2017,06,26,05,57,13.90
2017,06,26,05,58,13.90
2017,06,26,05,59,13.80
2017,06,26,06,00,13.80
2017,06,26,06,01,13.80
2017,06,26,06,02,13.70
2017,06,26,06,03,13.70
2017,06,26,06,04,13.70
2017,06,26,06,05,13.70
2017,06,26,06,06,13.70
2017,06,26,06,07,13.70
2017,06,26,06,08,13.70
2017,06,26,06,09,13.70
2017,06,26,06,10,13.60
2017,06,26,06,11,13.60
2017,06,26,06,12,13.60
2017,06,26,06,13,13.70
2017,06,26,06,14,13.70
2017,06,26,06,15,13.70
2017,06,26,06,16,13.70
2017,06,26,06,17,13.80
2017,06,26,06,18,13.80
2017,06,26,06,19,13.90
2017,06,26,06,20,14.00
2017,06,26,06,21,14.00
2017,06,26,06,22,14.10
2017,06,26,06,23,14.20
2017,06,26,06,24,14.30
2017,06,26,06,25,14.40
2017,06,26,06,26,14.40
2017,06,26,06,27,14.50
2017,06,26,06,28,14.60
2017,06,26,06,29,14.60
2017,06,26,06,30,14.60
2017,06,26,06,31,14.60
2017,06,26,06,32,14.70
2017,06,26,06,33,14.70
2017,06,26,06,34,14.80
2017,06,26,06,35,14.80
2017,06,26,06,36,14.80
2017,06,26,06,37,14.90
2017,06,26,06,38,14.90
2017,06,26,06,39,14.90
2017,06,26,06,40,15.00
2017,06,26,06,41,15.10
2017,06,26,06,42,15.20
2017,06,26,06,43,15.20
2017,06,26,06,44,15.30
2017,06,26,06,45,15.30
2017,06,26,06,46,15.30
2017,06,26,06,47,15.40
2017,06,26,06,48,15.40
2017,06,26,06,49,15.40
2017,06,26,06,50,15.40
2017,06,26,06,51,15.40
2017,06,26,06,52,15.40
2017,06,26,06,53,15.40
2017,06,26,06,54,15.40
2017,06,26,06,55,15.40
2017,06,26,06,56,15.40
2017,06,26,06,57,15.50
2017,06,26,06,58,15.50
2017,06,26,06,59,15.50
2017,06,26,07,00,15.60
2017,06,26,07,01,15.60
2017,06,26,07,02,15.70
2017,06,26,07,03,15.70
2017,06,26,07,04,15.80
2017,06,26,07,05,15.80
2017,06,26,07,06,15.80
2017,06,26,07,07,15.80
2017,06,26,07,08,15.90
2017,06,26,07,09,16.00
2017,06,26,07,10,16.10
2017,06,26,07,11,16.20
2017,06,26,07,12,16.20
2017,06,26,07,13,16.20
2017,06,26,07,14,16.20
2017,06,26,07,15,16.10
2017,06,26,07,16,16.00
2017,06,26,07,17,15.90
2017,06,26,07,18,15.90
2017,06,26,07,19,15.90
2017,06,26,07,20,15.90
2017,06,26,07,21,15.90
2017,06,26,07,22,15.90
2017,06,26,07,23,16.00
2017,06,26,07,24,16.10
2017,06,26,07,25,16.10
2017,06,26,07,26,16.10
2017,06,26,07,27,16.10
2017,06,26,07,28,16.10
2017,06,26,07,29,16.10
2017,06,26,07,30,16.10
2017,06,26,07,31,16.10
2017,06,26,07,32,16.10
2017,06,26,07,33,16.10
2017,06,26,07,34,16.10
2017,06,26,07,35,16.00
2017,06,26,07,36,15.90
2017,06,26,07,37,15.90
2017,06,26,07,38,15.90
2017,06,26,07,39,15.80
2017,06,26,07,40,15.80
2017,06,26,07,41,15.80
2017,06,26,07,42,15.80
2017,06,26,07,43,15.80
2017,06,26,07,44,15.80
2017,06,26,07,45,15.80
2017,06,26,07,46,15.70
2017,06,26,07,47,15.60
2017,06,26,07,48,15.60
2017,06,26,07,49,15.60
2017,06,26,07,50,15.60
2017,06,26,07,51,15.60
2017,06,26,07,52,15.60
2017,06,26,07,53,15.70
2017,06,26,07,54,15.70
2017,06,26,07,55,15.80
2017,06,26,07,56,15.80
2017,06,26,07,57,15.80
2017,06,26,07,58,15.80
2017,06,26,07,59,15.80
2017,06,26,08,00,15.80
2017,06,26,08,01,15.90
2017,06,26,08,02,15.90
2017,06,26,08,03,16.00
2017,06,26,08,04,16.10
2017,06,26,08,05,16.10
2017,06,26,08,06,16.20
2017,06,26,08,07,16.30
2017,06,26,08,08,16.20
2017,06,26,08,09,16.10
2017,06,26,08,10,15.90
2017,06,26,08,11,15.80
2017,06,26,08,12,15.80
2017,06,26,08,13,15.80
2017,06,26,08,14,15.80
2017,06,26,08,15,15.80
2017,06,26,08,16,15.80
2017,06,26,08,17,15.80
2017,06,26,08,18,15.80
2017,06,26,08,19,15.80
2017,06,26,08,20,15.80
2017,06,26,08,21,15.90
2017,06,26,08,22,16.00
2017,06,26,08,23,16.10
2017,06,26,08,24,16.20
2017,06,26,08,25,16.30
2017,06,26,08,26,16.40
2017,06,26,08,27,16.60
2017,06,26,08,28,16.70
2017,06,26,08,29,16.80
2017,06,26,08,30,16.90
2017,06,26,08,31,17.10
2017,06,26,08,32,17.30
2017,06,26,08,33,17.40
2017,06,26,08,34,17.60
2017,06,26,08,35,17.70
2017,06,26,08,36,17.90
2017,06,26,08,37,18.00
2017,06,26,08,38,18.10
2017,06,26,08,39,18.30
2017,06,26,08,40,18.40
2017,06,26,08,41,18.60
2017,06,26,08,42,18.70
2017,06,26,08,43,18.90
2017,06,26,08,44,19.00
2017,06,26,08,45,19.10
2017,06,26,08,46,19.10
2017,06,26,08,47,18.90
2017,06,26,08,48,18.90
2017,06,26,08,49,18.80
2017,06,26,08,50,18.90
2017,06,26,08,51,18.80
2017,06,26,08,52,18.80
2017,06,26,08,53,18.80
2017,06,26,08,54,18.70
2017,06,26,08,55,18.70
2017,06,26,08,56,18.70
2017,06,26,08,57,18.60
2017,06,26,08,58,18.50
2017,06,26,08,59,18.50
2017,06,26,09,00,18.40
2017,06,26,09,01,18.40
2017,06,26,09,02,18.30
2017,06,26,09,03,18.20
2017,06,26,09,04,18.00
2017,06,26,09,05,17.90
2017,06,26,09,06,17.80
2017,06,26,09,07,17.60
2017,06,26,09,08,17.50
2017,06,26,09,09,17.30
2017,06,26,09,10,17.30
2017,06,26,09,11,17.30
2017,06,26,09,12,17.30
2017,06,26,09,13,17.30
2017,06,26,09,14,17.10
2017,06,26,09,15,16.90
2017,06,26,09,16,16.80
2017,06,26,09,17,16.70
2017,06,26,09,18,16.70
2017,06,26,09,19,16.70
2017,06,26,09,20,16.80
2017,06,26,09,21,16.80
2017,06,26,09,22,16.70
2017,06,26,09,23,16.70
2017,06,26,09,24,16.70
2017,06,26,09,25,16.60
2017,06,26,09,26,16.50
2017,06,26,09,27,16.40
2017,06,26,09,28,16.40
2017,06,26,09,29,16.40
2017,06,26,09,30,16.60
2017,06,26,09,31,16.60
2017,06,26,09,32,16.60
2017,06,26,09,33,16.60
2017,06,26,09,34,16.60
2017,06,26,09,35,16.60
2017,06,26,09,36,16.60
2017,06,26,09,37,16.60
2017,06,26,09,38,16.60
2017,06,26,09,39,16.60
2017,06,26,09,40,16.70
2017,06,26,09,41,16.70
2017,06,26,09,42,16.80
2017,06,26,09,43,16.90
2017,06,26,09,44,16.90
2017,06,26,09,45,16.90
2017,06,26,09,46,16.70
2017,06,26,09,47,16.70
2017,06,26,09,48,16.70
2017,06,26,09,49,16.70
2017,06,26,09,50,16.70
2017,06,26,09,51,16.70
2017,06,26,09,52,16.70
2017,06,26,09,53,16.70
2017,06,26,09,54,16.70
2017,06,26,09,55,16.60
2017,06,26,09,56,16.60
2017,06,26,09,57,16.60
2017,06,26,09,58,16.60
2017,06,26,09,59,16.50
2017,06,26,10,00,16.40
2017,06,26,10,01,16.40
2017,06,26,10,02,16.50
2017,06,26,10,03,16.60
2017,06,26,10,04,16.60
2017,06,26,10,05,16.60
2017,06,26,10,06,16.60
2017,06,26,10,07,16.60
2017,06,26,10,08,16.70
2017,06,26,10,09,16.70
2017,06,26,10,10,16.70
2017,06,26,10,11,16.80
2017,06,26,10,12,16.90
2017,06,26,10,13,17.00
2017,06,26,10,14,17.00
2017,06,26,10,15,16.90
2017,06,26,10,16,16.70
2017,06,26,10,17,16.60
2017,06,26,10,18,16.60
2017,06,26,10,19,16.60
2017,06,26,10,20,16.60
2017,06,26,10,21,16.50
2017,06,26,10,22,16.40
2017,06,26,10,23,16.40
2017,06,26,10,24,16.40
2017,06,26,10,25,16.40
2017,06,26,10,26,16.40
2017,06,26,10,27,16.40
2017,06,26,10,28,16.40
2017,06,26,10,29,16.40
2017,06,26,10,30,16.50
2017,06,26,10,31,16.60
2017,06,26,10,32,16.70
2017,06,26,10,33,16.80
2017,06,26,10,34,16.80
2017,06,26,10,35,16.70
2017,06,26,10,36,16.70
2017,06,26,10,37,16.70
2017,06,26,10,38,16.70
2017,06,26,10,39,16.70
2017,06,26,10,40,16.70
2017,06,26,10,41,16.60
2017,06,26,10,42,16.60
2017,06,26,10,43,16.60
2017,06,26,10,44,16.40
2017,06,26,10,45,16.40
2017,06,26,10,46,16.40
2017,06,26,10,47,16.50
2017,06,26,10,48,16.60
2017,06,26,10,49,16.70
2017,06,26,10,50,16.70
2017,06,26,10,51,16.70
2017,06,26,10,52,16.70
2017,06,26,10,53,16.60
2017,06,26,10,54,16.60
2017,06,26,10,55,16.70
2017,06,26,10,56,16.70
2017,06,26,10,57,16.80
2017,06,26,10,58,16.90
2017,06,26,10,59,16.90
2017,06,26,11,00,16.90
2017,06,26,11,01,16.90
2017,06,26,11,02,16.90
2017,06,26,11,03,17.00
2017,06,26,11,04,17.00
2017,06,26,11,05,17.00
2017,06,26,11,06,17.00
2017,06,26,11,07,17.00
2017,06,26,11,08,17.00
2017,06,26,11,09,16.90
2017,06,26,11,10,16.70
2017,06,26,11,11,16.50
2017,06,26,11,12,16.40
2017,06,26,11,13,16.30
2017,06,26,11,14,16.10
2017,06,26,11,15,16.10
2017,06,26,11,16,16.00
2017,06,26,11,17,15.90
2017,06,26,11,18,16.00
2017,06,26,11,19,16.10
2017,06,26,11,20,16.10
2017,06,26,11,21,16.10
2017,06,26,11,22,16.00
2017,06,26,11,23,15.90
2017,06,26,11,24,16.00
2017,06,26,11,25,15.90
2017,06,26,11,26,15.90
2017,06,26,11,27,15.90
2017,06,26,11,28,16.00
2017,06,26,11,29,16.10
2017,06,26,11,30,16.20
2017,06,26,11,31,16.30
2017,06,26,11,32,16.50
2017,06,26,11,33,16.60
2017,06,26,11,34,16.70
2017,06,26,11,35,16.90
2017,06,26,11,36,17.00
2017,06,26,11,37,17.20
2017,06,26,11,38,17.20
2017,06,26,11,39,17.30
2017,06,26,11,40,17.30
2017,06,26,11,41,17.30
2017,06,26,11,42,17.20
2017,06,26,11,43,17.20
2017,06,26,11,44,17.20
2017,06,26,11,45,17.20
2017,06,26,11,46,17.30
2017,06,26,11,47,17.30
2017,06,26,11,48,17.30
2017,06,26,11,49,17.20
2017,06,26,11,50,17.00
2017,06,26,11,51,16.80
2017,06,26,11,52,16.70
2017,06,26,11,53,16.70
2017,06,26,11,54,16.70
2017,06,26,11,55,16.80
2017,06,26,11,56,16.80
2017,06,26,11,57,16.70
2017,06,26,11,58,16.70
2017,06,26,11,59,16.70
2017,06,26,12,00,16.70
2017,06,26,12,01,16.80
2017,06,26,12,02,16.90
2017,06,26,12,03,17.10
2017,06,26,12,04,17.20
2017,06,26,12,05,17.20
2017,06,26,12,06,17.20
2017,06,26,12,07,17.00
2017,06,26,12,08,17.00
2017,06,26,12,09,16.90
2017,06,26,12,10,16.80
2017,06,26,12,11,16.90
2017,06,26,12,12,17.00
2017,06,26,12,13,17.00
2017,06,26,12,14,17.00
2017,06,26,12,15,17.00
2017,06,26,12,16,17.00
2017,06,26,12,17,17.00
2017,06,26,12,18,17.10
2017,06,26,12,19,17.20
2017,06,26,12,20,17.30
2017,06,26,12,21,17.40
2017,06,26,12,22,17.50
2017,06,26,12,23,17.50
2017,06,26,12,24,17.70
2017,06,26,12,25,17.70
2017,06,26,12,26,17.70
2017,06,26,12,27,17.60
2017,06,26,12,28,17.50
2017,06,26,12,29,17.40
2017,06,26,12,30,17.30
2017,06,26,12,31,17.20
2017,06,26,12,32,17.30
2017,06,26,12,33,17.20
2017,06,26,12,34,17.10
2017,06,26,12,35,17.10
2017,06,26,12,36,17.00
2017,06,26,12,37,17.00
2017,06,26,12,38,17.00
2017,06,26,12,39,17.00
2017,06,26,12,40,17.20
2017,06,26,12,41,17.30
2017,06,26,12,42,17.40
2017,06,26,12,43,17.50
2017,06,26,12,44,17.70
2017,06,26,12,45,17.70
2017,06,26,12,46,17.70
2017,06,26,12,47,17.80
2017,06,26,12,48,17.90
2017,06,26,12,49,17.90
2017,06,26,12,50,17.90
2017,06,26,12,51,18.00
2017,06,26,12,52,18.10
2017,06,26,12,53,18.20
2017,06,26,12,54,18.20
2017,06,26,12,55,18.20
2017,06,26,12,56,18.20
2017,06,26,12,57,18.20
2017,06,26,12,58,18.10
2017,06,26,12,59,18.10
2017,06,26,13,00,18.00
2017,06,26,13,01,17.90
2017,06,26,13,02,17.90
2017,06,26,13,03,17.80
2017,06,26,13,04,17.70
2017,06,26,13,05,17.60
2017,06,26,13,06,17.50
2017,06,26,13,07,17.50
2017,06,26,13,08,17.50
2017,06,26,13,09,17.40
2017,06,26,13,10,17.30
2017,06,26,13,11,17.30
2017,06,26,13,12,17.30
2017,06,26,13,13,17.30
2017,06,26,13,14,17.30
2017,06,26,13,15,17.30
2017,06,26,13,16,17.30
2017,06,26,13,17,17.10
2017,06,26,13,18,17.00
2017,06,26,13,19,16.90
2017,06,26,13,20,16.80
2017,06,26,13,21,16.80
2017,06,26,13,22,16.70
2017,06,26,13,23,16.70
2017,06,26,13,24,16.70
2017,06,26,13,25,16.80
2017,06,26,13,26,16.90
2017,06,26,13,27,16.90
2017,06,26,13,28,16.90
2017,06,26,13,29,16.80
2017,06,26,13,30,16.70
2017,06,26,13,31,16.70
2017,06,26,13,32,16.70
2017,06,26,13,33,16.70
2017,06,26,13,34,16.70
2017,06,26,13,35,16.60
2017,06,26,13,36,16.50
2017,06,26,13,37,16.40
2017,06,26,13,38,16.50
2017,06,26,13,39,16.60
2017,06,26,13,40,16.50
2017,06,26,13,41,16.60
2017,06,26,13,42,16.70
2017,06,26,13,43,16.70
2017,06,26,13,44,16.70
2017,06,26,13,45,16.80
2017,06,26,13,46,16.80
2017,06,26,13,47,16.80
2017,06,26,13,48,16.80
2017,06,26,13,49,16.80
2017,06,26,13,50,16.80
2017,06,26,13,51,16.80
2017,06,26,13,52,16.70
2017,06,26,13,53,16.70
2017,06,26,13,54,16.70
2017,06,26,13,55,16.70
2017,06,26,13,56,16.60
2017,06,26,13,57,16.60
2017,06,26,13,58,16.60
2017,06,26,13,59,16.60
2017,06,26,14,00,16.60
2017,06,26,14,01,16.80
2017,06,26,14,02,16.80
2017,06,26,14,03,16.90
2017,06,26,14,04,17.00
2017,06,26,14,05,17.00
2017,06,26,14,06,16.90
2017,06,26,14,07,16.90
2017,06,26,14,08,16.90
2017,06,26,14,09,16.90
2017,06,26,14,10,16.90
2017,06,26,14,11,16.70
2017,06,26,14,12,16.60
2017,06,26,14,13,16.60
2017,06,26,14,14,16.50
2017,06,26,14,15,16.40
2017,06,26,14,16,16.40
2017,06,26,14,17,16.40
2017,06,26,14,18,16.40
2017,06,26,14,19,16.30
2017,06,26,14,20,16.30
2017,06,26,14,21,16.40
2017,06,26,14,22,16.40
2017,06,26,14,23,16.40
2017,06,26,14,24,16.40
2017,06,26,14,25,16.40
2017,06,26,14,26,16.40
2017,06,26,14,27,16.40
2017,06,26,14,28,16.40
2017,06,26,14,29,16.40
2017,06,26,14,30,16.40
2017,06,26,14,31,16.40
2017,06,26,14,32,16.40
2017,06,26,14,33,16.40
2017,06,26,14,34,16.50
2017,06,26,14,35,16.60
2017,06,26,14,36,16.80
2017,06,26,14,37,16.80
2017,06,26,14,38,16.80
2017,06,26,14,39,16.60
2017,06,26,14,40,16.40
2017,06,26,14,41,16.40
2017,06,26,14,42,16.40
2017,06,26,14,43,16.40
2017,06,26,14,44,16.50
2017,06,26,14,45,16.60
2017,06,26,14,46,16.70
2017,06,26,14,47,16.60
2017,06,26,14,48,16.60
2017,06,26,14,49,16.60
2017,06,26,14,50,16.60
2017,06,26,14,51,16.60
2017,06,26,14,52,16.40
2017,06,26,14,53,16.40
2017,06,26,14,54,16.40
2017,06,26,14,55,16.40
2017,06,26,14,56,16.30
2017,06,26,14,57,16.20
2017,06,26,14,58,16.20
2017,06,26,14,59,16.40
2017,06,26,15,00,16.40
2017,06,26,15,01,16.40
2017,06,26,15,02,16.30
2017,06,26,15,03,16.40
2017,06,26,15,04,16.40
2017,06,26,15,05,16.40
2017,06,26,15,06,16.30
2017,06,26,15,07,16.20
2017,06,26,15,08,16.10
2017,06,26,15,09,16.10
2017,06,26,15,10,16.10
2017,06,26,15,11,16.10
2017,06,26,15,12,16.10
2017,06,26,15,13,16.20
2017,06,26,15,14,16.20
2017,06,26,15,15,16.30
2017,06,26,15,16,16.30
2017,06,26,15,17,16.30
2017,06,26,15,18,16.30
2017,06,26,15,19,16.10
2017,06,26,15,20,16.00
2017,06,26,15,21,15.90
2017,06,26,15,22,15.80
2017,06,26,15,23,15.90
2017,06,26,15,24,15.90
2017,06,26,15,25,15.90
2017,06,26,15,26,16.00
2017,06,26,15,27,16.10
2017,06,26,15,28,16.10
2017,06,26,15,29,16.10
2017,06,26,15,30,16.10
2017,06,26,15,31,16.20
2017,06,26,15,32,16.30
2017,06,26,15,33,16.40
2017,06,26,15,34,16.50
2017,06,26,15,35,16.60
2017,06,26,15,36,16.70
2017,06,26,15,37,16.90
2017,06,26,15,38,17.00
2017,06,26,15,39,17.20
2017,06,26,15,40,17.30
2017,06,26,15,41,17.40
2017,06,26,15,42,17.50
2017,06,26,15,43,17.50
2017,06,26,15,44,17.50
2017,06,26,15,45,17.60
2017,06,26,15,46,17.60
2017,06,26,15,47,17.60
2017,06,26,15,48,17.60
2017,06,26,15,49,17.60
2017,06,26,15,50,17.70
2017,06,26,15,51,17.70
2017,06,26,15,52,17.80
2017,06,26,15,53,17.90
2017,06,26,15,54,17.90
2017,06,26,15,55,17.80
2017,06,26,15,56,17.80
2017,06,26,15,57,17.90
2017,06,26,15,58,17.90
2017,06,26,15,59,17.90
2017,06,26,16,00,18.00
2017,06,26,16,01,18.10
2017,06,26,16,02,18.20
2017,06,26,16,03,18.20
2017,06,26,16,04,18.20
2017,06,26,16,05,18.20
2017,06,26,16,06,18.20
2017,06,26,16,07,18.10
2017,06,26,16,08,18.20
2017,06,26,16,09,18.30
2017,06,26,16,10,18.30
2017,06,26,16,11,18.30
2017,06,26,16,12,18.20
2017,06,26,16,13,18.20
2017,06,26,16,14,18.30
2017,06,26,16,15,18.20
2017,06,26,16,16,18.20
2017,06,26,16,17,18.20
2017,06,26,16,18,18.30
2017,06,26,16,19,18.40
2017,06,26,16,20,18.50
2017,06,26,16,21,18.50
2017,06,26,16,22,18.60
2017,06,26,16,23,18.70
2017,06,26,16,24,18.90
2017,06,26,16,25,18.90
2017,06,26,16,26,18.90
2017,06,26,16,27,18.90
2017,06,26,16,28,18.90
2017,06,26,16,29,18.90
2017,06,26,16,30,18.90
2017,06,26,16,31,18.80
2017,06,26,16,32,18.70
2017,06,26,16,33,18.70
2017,06,26,16,34,18.60
2017,06,26,16,35,18.70
2017,06,26,16,36,18.70
2017,06,26,16,37,18.60
2017,06,26,16,38,18.70
2017,06,26,16,39,18.80
2017,06,26,16,40,18.90
2017,06,26,16,41,19.10
2017,06,26,16,42,19.30
2017,06,26,16,43,19.40
2017,06,26,16,44,19.50
2017,06,26,16,45,19.60
2017,06,26,16,46,19.60
2017,06,26,16,47,19.60
2017,06,26,16,48,19.60
2017,06,26,16,49,19.50
2017,06,26,16,50,19.50
2017,06,26,16,51,19.40
2017,06,26,16,52,19.20
2017,06,26,16,53,19.10
2017,06,26,16,54,19.00
2017,06,26,16,55,18.90
2017,06,26,16,56,18.90
2017,06,26,16,57,18.90
2017,06,26,16,58,18.90
2017,06,26,16,59,18.90
2017,06,26,17,00,18.90
2017,06,26,17,01,18.90
2017,06,26,17,02,19.00
2017,06,26,17,03,19.10
2017,06,26,17,04,19.20
2017,06,26,17,05,19.20
2017,06,26,17,06,19.30
2017,06,26,17,07,19.40
2017,06,26,17,08,19.40
2017,06,26,17,09,19.40
2017,06,26,17,10,19.50
2017,06,26,17,11,19.50
2017,06,26,17,12,19.60
2017,06,26,17,13,19.70
2017,06,26,17,14,19.80
2017,06,26,17,15,19.90
2017,06,26,17,16,19.90
2017,06,26,17,17,19.80
2017,06,26,17,18,19.70
2017,06,26,17,19,19.50